sat.trackr.live / text

‹ back to catalog

ONEWEB-0565

NORAD 55146 · 2023-004G

PAYLOAD ACTIVE UNKNOWN

§ Identity

Operator
Country
UK
Launch date
2023-01-10
Launch site
AFETR
Launch vehicle
Mass (kg)
RCS (m²)

Purposes: comms

External: N2YO · Heavens-Above · Gunter

§ Orbital elements

Epoch: 2026-09-19T21:55:16.252320Z

Period
109.20 min
Inclination
87.9145°
Eccentricity
0.0001595
Mean motion
13.18684358 rev/d
Perigee alt
1,188.5 km
Apogee alt
1,191.0 km
Semi-major
7,567.9 km
B*
-1.8891e-4
RAAN
316.6518°
Arg perigee
101.8748°
Mean anomaly
258.2563°
Rev number
18,218

§ Raw data

ONEWEB-05651 55146U 23004G   26262.91338255 -.00000062  00000+0 -18891-3 0  99932 55146  87.9145 316.6518 0001595 101.8748 258.2563 13.18684358182184

JSON: /api/v1/satellites/55146 · /tle

For live sub-satellite position, see the globe view (requires WebGL).

§ Visibility from observer

Set your observer location to see the next 7 days of passes ≥ 10°. The values pass through the URL so the page stays shareable.

No JS? Fill the form by hand. The geolocation button needs JavaScript.